Theta_e
363 366 364 359 356 358 352 351 347 338 339 345 349 355 353 351 350 353 349 343 342 341 341 342 342 343 343 344 344 344 345 344 343 344 342 342 341 340
360 362 361 359 355 355 355 351 358 346 339 348 347 348 355 357 359 360 351 343 341 340 340 340 340 340 340 340 341 341 341 340 338 336 335 334 332 332
363 362 359 363 360 358 357 354 353 350 345 350 354 355 358 358 350 354 347 347 340 339 338 337 336 336 336 336 336 337 337 335 334 332 330 328 328 328
358 360 361 353 362 362 360 355 355 357 353 346 354 355 356 354 343 349 356 353 343 339 335 335 334 333 332 331 332 331 331 330 329 328 327 326 325 325
350 352 357 362 354 358 360 358 354 357 355 350 349 354 353 355 352 355 353 344 344 337 335 331 330 329 327 326 326 325 323 323 322 322 322 323 322 321
359 356 359 358 354 357 356 359 355 357 353 352 350 348 350 352 352 346 342 345 335 338 335 330 327 326 324 323 323 322 319 318 317 317 318 318 318 318
360 360 360 358 353 353 357 357 358 354 353 350 348 348 346 345 343 345 343 348 347 341 330 324 320 319 319 323 323 322 319 317 315 314 313 312 313 315
355 358 362 356 353 351 349 347 348 355 353 349 348 346 345 348 346 346 346 343 339 346 336 335 327 326 323 320 323 320 319 316 315 313 312 311 311 312
359 359 359 355 356 357 342 338 338 338 341 351 348 348 348 343 345 342 341 340 338 340 341 326 324 315 315 318 320 319 317 316 315 314 313 312 310 309
359 360 360 359 358 357 353 351 349 335 331 343 343 337 334 337 341 342 344 343 341 336 341 329 327 321 318 315 317 317 316 315 314 314 313 312 310 308
358 359 355 359 334 336 352 352 340 326 321 322 322 323 325 326 328 337 330 336 333 332 335 332 330 325 322 319 315 317 316 314 313 313 313 312 310 309
356 340 326 338 326 327 349 351 344 328 328 327 329 330 330 325 325 325 324 325 326 325 324 325 331 330 322 324 320 316 315 314 311 311 312 311 310 309
352 347 331 320 317 320 326 343 343 333 329 329 327 325 324 323 322 325 326 324 323 318 322 327 326 324 324 325 323 319 319 317 314 311 309 309 308 309
347 334 322 313 314 318 322 318 319 324 326 325 325 322 320 322 321 323 326 326 328 325 330 328 323 321 320 318 322 324 325 321 319 320 317 312 308 309
333 318 313 312 315 319 317 318 322 325 325 324 322 321 320 319 324 325 329 329 327 327 327 326 325 323 321 320 317 321 322 324 324 322 322 316 312 310
320 322 318 318 318 320 324 325 327 327 326 322 320 320 320 322 323 323 327 326 323 322 326 326 323 323 316 317 316 318 317 316 318 319 320 318 319 319
319 321 320 320 320 320 321 322 322 324 324 322 318 319 320 322 319 321 319 319 320 319 320 321 324 324 318 317 314 312 312 316 318 317 314 313 314 314
319 318 318 318 317 316 315 316 318 318 319 319 320 320 318 314 313 319 319 318 317 318 314 315 315 315 315 313 314 312 311 312 315 311 314 310 311 311
319 318 317 316 316 316 316 316 316 320 320 318 316 315 316 313 316 315 314 315 315 316 314 314 314 309 306 306 310 310 310 311 312 311 311 310 306 307
318 317 317 316 316 316 318 317 318 318 317 316 314 314 315 314 313 311 308 309 310 310 313 311 308 306 306 307 307 306 308 310 310 308 307 308 308 310
316 315 317 318 319 317 318 318 317 317 316 315 314 314 313 311 310 310 308 305 307 311 311 310 310 314 313 316 309 308 307 308 310 309 308 305 304 305
318 318 320 320 319 320 319 317 316 315 315 316 316 316 315 314 311 311 311 310 311 311 311 314 318 315 316 309 307 309 308 309 308 309 309 309 303 298
322 318 319 320 320 320 318 317 318 318 317 316 315 314 315 312 315 313 313 312 310 311 311 312 311 312 311 308 308 306 307 308 309 306 305 308 308 308
Wind_Speed
5 5 2 4 5 4 3 3 1 3 3 6 4 8 5 3 6 6 7 8 10 11 8 7 9 10 10 10 11 12 13 14 15 14 15 15 13 13
2 4 4 3 5 5 4 4 4 2 2 3 2 4 6 3 4 7 6 10 10 11 9 8 8 9 9 10 10 11 11 13 13 14 14 14 14 14
5 4 4 2 4 4 5 4 3 2 2 2 3 2 1 5 10 7 5 5 4 10 10 10 9 8 9 9 9 10 11 12 12 13 14 14 13 12
5 7 4 3 2 3 3 4 5 5 2 4 3 1 3 5 5 9 2 6 6 3 9 10 10 9 9 9 9 10 11 12 12 13 13 13 13 12
4 13 4 2 3 3 2 3 4 4 4 2 4 4 4 3 4 5 3 5 5 9 5 10 11 11 10 10 9 9 10 11 11 12 11 11 12 12
7 6 5 5 6 4 4 0 4 3 3 3 3 3 2 2 3 2 1 4 4 7 7 8 9 11 11 10 10 10 9 9 9 10 11 11 11 11
7 5 6 5 7 3 2 2 0 2 3 2 2 1 2 1 0 1 1 2 4 4 5 5 5 5 5 7 10 12 10 10 10 11 10 10 9 9
7 6 6 6 4 3 3 5 2 2 2 2 1 1 2 1 1 1 1 1 2 4 3 3 1 4 4 3 11 11 10 11 10 9 8 8 7 7
9 7 4 4 4 5 5 7 6 4 3 2 2 2 2 3 3 3 3 2 2 2 7 4 3 4 3 4 10 11 10 9 8 6 6 5 5 5
6 6 6 6 4 3 6 4 5 7 6 4 7 5 5 5 4 2 2 2 4 4 3 3 3 3 4 4 8 9 8 6 6 4 4 4 3 3
6 6 4 5 4 1 6 8 8 7 8 13 12 9 9 9 7 2 3 1 2 3 4 2 3 4 4 5 6 11 8 8 9 8 8 7 5 4
8 7 10 9 6 3 4 5 6 8 7 5 4 6 6 6 9 6 3 3 1 3 3 2 4 4 3 5 6 5 5 11 10 10 11 10 7 4
6 6 5 6 8 7 3 2 2 7 10 7 5 2 3 4 3 4 5 4 4 4 2 2 3 2 1 4 5 6 7 5 5 6 10 10 10 9
5 6 7 6 9 10 8 9 14 11 6 5 4 2 3 3 2 2 4 5 4 5 3 4 2 4 4 3 4 5 6 6 6 4 6 8 13 13
7 11 13 15 13 10 11 12 8 5 6 7 4 2 2 3 2 0 2 3 3 2 3 4 3 4 4 3 4 2 4 4 4 4 4 4 5 4
16 8 12 14 12 8 7 8 5 3 4 2 3 3 1 3 3 2 3 3 3 1 2 2 3 4 4 4 5 4 5 4 1 2 3 3 4 3
13 8 7 7 8 8 7 5 4 3 2 1 2 2 1 3 3 3 3 3 2 2 2 2 4 3 5 4 4 4 5 2 2 0 3 5 4 5
9 10 9 8 8 6 5 4 0 6 5 4 3 3 4 3 3 3 3 2 3 4 5 3 5 3 1 4 9 4 4 3 4 7 6 5 4 5
11 8 9 8 8 6 3 2 1 3 5 5 4 4 3 3 4 4 4 3 3 4 3 1 4 4 4 4 1 13 4 4 3 4 4 2 2 1
7 8 6 7 7 6 4 3 4 3 3 4 5 4 4 4 3 4 4 3 3 1 2 4 4 2 2 2 3 1 9 5 4 4 4 3 5 11
5 5 5 5 4 5 5 4 4 3 3 4 3 3 2 4 0 4 2 1 1 2 5 3 1 4 1 3 4 2 2 6 4 2 2 3 4 2
6 6 5 5 5 5 5 4 4 3 4 4 3 2 2 3 2 3 2 3 1 2 2 4 4 3 1 3 3 4 4 2 2 2 3 5 2 2
5 5 5 5 4 5 5 5 5 4 4 5 3 3 1 3 2 2 1 1 3 2 3 1 2 4 3 3 3 1 2 2 5 4 3 10 10 10
Wind_Direction
268 243 297 317 357 337 338 311 284 341 342 34 72 42 132 205 133 148 134 161 143 125 123 114 111 109 107 103 97 92 89 87 79 78 79 77 76 75
311 45 324 350 350 321 357 14 10 78 306 106 63 142 284 138 115 123 150 168 146 127 128 117 104 98 95 92 91 94 94 94 93 90 89 87 85 82
257 261 258 273 292 357 341 338 324 88 14 335 126 220 286 81 47 354 152 130 121 131 130 120 111 104 101 97 95 95 98 98 98 97 95 91 88 86
274 272 244 232 205 254 280 326 333 339 7 319 331 37 119 101 133 211 104 116 103 134 129 123 115 107 99 93 90 91 93 97 97 95 92 90 86 80
211 267 203 270 304 270 311 327 333 343 325 353 306 14 76 71 71 59 14 118 101 131 125 114 117 113 105 99 97 98 97 97 95 92 90 90 87 87
219 252 210 227 243 265 265 265 309 309 310 333 339 7 37 57 96 139 70 136 135 185 148 126 129 124 115 108 107 108 108 108 103 96 86 79 84 87
254 274 212 190 168 143 223 259 118 306 333 354 337 5 39 35 289 313 343 175 128 129 119 130 142 135 130 123 123 127 126 115 103 102 97 89 81 85
248 268 265 218 212 119 75 81 102 241 276 287 107 269 274 250 251 263 331 53 150 134 110 107 127 115 98 97 133 131 122 119 120 118 107 98 96 94
219 235 251 247 166 150 105 112 105 116 68 340 232 24 61 6 6 17 17 63 60 69 115 98 79 80 92 120 131 132 132 133 136 143 123 124 122 115
232 226 223 247 276 247 147 160 144 64 24 346 72 67 59 11 1 284 325 53 102 67 10 111 144 143 154 138 158 157 159 168 177 176 175 188 180 179
220 236 299 246 88 219 200 174 125 108 73 73 89 92 69 48 28 351 35 67 120 65 23 144 179 126 173 162 177 195 200 197 199 202 210 214 224 247
226 116 53 95 119 54 240 194 162 151 136 129 114 79 61 50 41 49 48 48 73 108 9 335 161 167 176 157 159 170 191 213 213 211 208 216 215 233
185 150 101 91 106 96 68 15 116 119 104 94 95 75 73 62 51 33 24 60 35 77 280 338 334 3 317 126 156 173 191 178 203 210 220 218 217 212
118 90 108 99 87 84 79 99 98 100 102 94 77 66 57 68 21 71 59 65 75 111 84 30 21 27 348 336 158 169 200 157 188 191 196 208 219 222
103 103 107 99 92 80 71 61 65 96 119 107 87 275 150 152 154 255 137 115 129 98 79 79 49 350 336 22 1 65 152 167 195 211 195 169 193 192
111 95 96 91 87 88 80 78 76 50 60 75 136 274 267 185 188 189 161 183 161 109 30 41 62 12 8 14 20 42 55 106 108 117 192 231 244 124
119 110 101 99 100 97 93 97 122 115 109 212 150 196 66 77 67 43 21 358 59 174 153 333 317 59 62 26 36 25 17 72 158 313 35 61 39 105
111 114 109 105 100 91 94 111 207 127 158 134 106 73 82 78 55 27 12 14 55 64 73 31 14 31 100 56 50 23 26 22 37 36 28 92 77 77
107 112 115 118 119 123 133 116 125 37 86 89 86 78 59 78 48 55 43 40 48 70 96 93 38 22 0 87 72 41 44 25 43 29 62 84 162 95
99 109 115 140 150 160 163 128 96 83 80 91 78 59 66 62 68 70 36 30 12 0 86 70 62 29 359 34 102 64 19 59 33 7 13 358 56 123
102 114 155 192 173 118 111 128 120 134 117 88 88 91 63 102 152 139 142 139 142 313 96 111 194 210 258 318 104 124 28 50 94 83 5 358 352 177
172 191 195 122 95 100 107 126 122 115 128 145 150 131 65 59 143 117 127 196 212 115 101 160 193 217 79 106 105 116 163 201 108 121 172 162 182 288
151 124 115 118 145 154 159 170 173 152 121 120 128 110 251 152 157 204 223 119 94 328 125 333 338 73 119 105 102 143 207 232 178 195 240 232 218 228